Wind_Speed
11 12 12 12 12 12 12 12 12 12 12 11 11 12 12 12 12 12 12 12 13 13 13 14 14 14 14 14 14 14 13 14 14 14 14 14 14 15
12 12 13 13 13 13 13 13 13 13 13 12 12 12 12 12 12 12 12 13 13 13 13 13 14 14 14 15 14 13 13 14 14 14 15 15 15 16
13 14 14 14 14 14 14 14 14 14 13 14 14 13 13 13 13 13 13 13 13 14 14 14 14 14 14 14 14 14 14 14 15 15 16 16 17 17
14 15 15 15 15 15 15 15 15 15 14 14 14 14 15 14 14 13 13 14 14 14 14 15 15 14 15 15 15 16 16 16 17 17 18 18 18 18
16 16 16 16 16 16 16 16 16 16 16 15 15 15 15 15 15 14 15 14 15 15 15 15 15 15 16 16 17 17 17 18 18 19 20 20 20 19
17 17 18 18 18 18 17 17 17 17 16 16 16 16 15 15 15 15 15 15 15 15 15 15 15 16 16 16 17 17 18 18 19 20 20 20 20 21
18 18 19 19 19 19 18 18 17 17 16 16 16 16 16 16 16 16 16 17 17 17 17 16 16 16 16 16 17 17 18 19 19 19 20 20 21 21
18 19 19 20 20 20 19 19 18 18 17 17 17 17 17 17 17 17 17 18 18 18 17 17 16 16 17 17 17 18 18 19 19 19 20 20 20 20
19 20 20 21 21 21 20 20 19 19 18 18 17 18 18 17 18 18 18 18 18 18 18 17 17 17 17 17 18 18 18 19 19 20 20 20 20 20
20 20 21 21 21 21 20 19 19 19 19 19 18 18 19 18 18 19 19 19 18 18 18 18 18 18 18 18 18 18 18 19 19 20 20 20 20 20
21 21 21 21 21 21 21 20 20 20 20 20 19 20 19 19 19 19 19 19 19 18 19 19 19 19 18 18 19 19 20 20 20 20 20 21 21 21
21 21 21 21 21 21 21 21 20 20 21 20 20 20 20 20 20 20 19 19 19 19 19 19 19 19 18 19 20 20 20 20 21 21 21 21 22 22
21 21 21 21 21 21 21 21 21 21 21 22 21 21 21 21 21 21 20 19 19 19 19 20 19 20 20 19 20 20 21 21 21 21 21 21 21 22
21 21 21 21 21 21 20 21 21 22 22 22 22 22 21 21 21 21 21 20 19 19 19 20 20 21 21 21 21 21 21 21 20 20 20 21 21 22
22 22 22 22 21 21 20 20 21 21 21 22 22 22 21 21 22 22 22 21 20 20 20 20 20 21 20 20 20 21 21 21 21 21 21 22 22 22
22 22 22 22 22 22 21 20 21 21 21 22 22 22 21 22 22 22 22 22 21 21 20 20 20 20 21 21 21 21 22 21 21 21 22 22 22 23
22 22 22 22 22 23 22 22 22 22 22 22 22 22 22 22 22 22 22 22 22 21 21 21 21 21 22 23 23 23 23 22 22 22 22 22 23 23
23 23 23 23 22 23 23 23 23 23 23 23 23 23 23 23 22 22 23 22 22 22 22 22 22 23 23 23 24 24 23 23 23 23 23 23 23 24
24 24 24 23 24 24 24 24 24 24 24 23 23 23 23 23 23 23 23 22 22 22 23 23 23 23 23 23 23 24 24 24 24 24 24 24 25 25
25 25 25 25 25 24 24 24 24 24 24 23 23 23 23 23 23 23 23 23 23 23 24 24 24 24 24 24 24 24 24 24 25 25 25 25 25 26
25 25 25 24 24 24 24 24 24 24 24 24 24 24 24 24 24 24 24 25 25 25 25 25 26 25 25 25 25 25 25 25 25 26 26 26 27 27
25 24 24 24 24 24 24 23 23 24 25 25 25 24 24 25 24 25 25 25 26 26 26 27 27 27 26 26 26 25 26 26 27 27 28 28 28 28
25 25 25 25 24 25 24 24 24 24 25 25 25 25 25 25 25 25 26 26 26 27 28 28 28 28 28 28 28 28 28 28 28 28 29 29 29 29
Wind_Direction
290 289 290 289 294 295 293 294 293 292 292 290 288 286 287 289 286 283 281 283 284 285 281 277 276 273 271 273 275 278 279 280 280 282 284 284 280 279
289 289 290 288 291 291 291 293 293 290 289 289 288 286 285 288 286 282 282 283 283 283 283 282 281 278 275 274 276 277 278 278 279 282 284 286 284 282
288 288 290 290 293 292 292 293 291 289 287 287 288 288 285 287 286 284 284 284 283 283 284 284 284 281 277 277 279 281 280 280 281 282 283 284 284 282
286 286 288 288 290 289 290 292 291 288 287 287 287 288 286 286 285 283 284 284 283 283 283 284 284 282 278 277 278 279 279 280 281 282 283 283 283 283
284 285 286 287 289 287 287 288 289 287 286 285 285 285 285 284 284 281 282 283 284 284 283 284 283 282 280 278 279 280 282 282 283 283 283 283 281 282
282 283 283 284 287 286 285 285 285 285 285 284 282 283 283 283 282 282 283 284 286 286 286 286 285 284 282 282 282 282 284 284 284 285 285 284 282 282
282 283 284 286 286 285 283 283 282 283 283 282 282 284 285 284 283 283 284 285 285 285 285 285 285 284 282 283 283 283 283 285 285 286 286 286 285 284
283 284 286 287 286 284 282 282 282 281 282 282 282 283 283 283 282 282 283 284 283 283 284 284 283 282 281 283 284 284 284 285 286 287 287 287 286 285
283 283 285 285 285 283 280 279 279 279 280 280 281 283 283 283 282 281 283 285 283 282 282 282 280 280 281 283 285 285 284 285 286 287 288 288 287 287
285 284 284 284 284 283 278 275 275 276 277 278 279 281 282 282 281 282 282 283 282 280 281 281 280 280 281 284 286 287 286 286 287 287 288 288 287 287
286 285 284 284 283 281 277 273 273 274 275 276 278 280 281 281 281 281 281 282 279 279 281 281 279 280 281 283 285 287 288 287 287 287 286 286 286 286
284 285 285 285 284 279 275 271 271 272 273 276 278 280 280 280 280 280 280 281 280 278 280 280 280 280 281 284 287 289 289 288 288 287 286 286 286 288
282 284 284 284 284 279 275 271 270 271 272 275 277 278 277 278 280 280 280 280 280 280 280 281 281 281 283 285 287 289 289 289 289 289 289 287 287 288
281 281 282 282 281 280 277 274 272 271 273 274 276 277 277 276 277 278 279 280 279 278 280 282 283 283 283 285 286 288 289 288 288 289 290 290 290 289
280 280 281 281 279 278 276 274 274 273 273 274 276 277 277 276 275 275 278 277 277 280 281 283 283 284 284 285 287 288 288 287 286 287 290 290 291 290
280 280 280 279 277 276 274 273 273 274 274 274 274 275 276 278 277 276 277 277 278 280 280 282 283 285 285 286 288 288 288 288 287 287 289 290 290 292
281 280 279 279 279 276 274 273 274 274 274 274 274 274 275 276 276 275 276 277 277 278 280 283 284 283 284 285 286 287 287 286 287 288 289 290 290 290
281 281 280 278 278 278 276 273 273 274 274 274 274 275 275 275 276 275 276 276 276 278 280 283 284 284 283 284 285 286 286 286 286 287 289 290 291 290
281 280 279 277 276 276 276 274 272 272 273 273 273 274 275 274 274 276 277 277 277 278 279 283 285 285 284 284 284 285 286 286 286 287 288 290 290 290
280 278 277 276 275 275 275 274 273 272 272 272 272 273 274 274 274 274 276 276 276 277 278 282 284 285 286 286 285 286 287 287 287 287 287 288 290 290
280 279 277 276 275 275 276 275 274 272 272 273 273 273 274 275 274 274 275 276 276 276 279 282 284 286 286 285 284 285 285 287 288 288 287 287 289 290
280 278 277 276 275 275 275 275 275 274 273 273 273 275 276 276 276 277 277 276 275 276 278 281 282 283 283 284 284 284 285 286 287 287 288 288 289 289
278 277 277 276 274 274 275 275 275 275 274 272 272 274 277 277 276 277 278 277 278 277 277 279 280 283 283 283 283 283 284 285 286 287 288 289 288 289
Height
5812 5812 5811 5810 5809 5808 5807 5806 5805 5803 5802 5801 5800 5799 5798 5797 5796 5795 5794 5793 5792 5791 5790 5789 5788 5788 5787 5787 5786 5785 5785 5784 5783 5782 5782 5780 5779 5779
5809 5808 5808 5807 5805 5804 5803 5802 5801 5800 5799 5798 5797 5796 5795 5794 5793 5792 5791 5790 5788 5788 5786 5785 5784 5784 5783 5782 5782 5781 5780 5780 5779 5778 5778 5776 5775 5774
5805 5805 5804 5803 5802 5801 5799 5798 5797 5796 5795 5794 5793 5792 5791 5790 5789 5788 5787 5786 5785 5784 5782 5781 5780 5779 5778 5778 5777 5776 5776 5775 5775 5774 5773 5772 5771 5770
5802 5801 5800 5799 5798 5797 5796 5794 5793 5792 5791 5790 5789 5788 5787 5786 5785 5784 5783 5782 5780 5779 5778 5777 5775 5775 5774 5773 5772 5772 5771 5770 5769 5769 5768 5767 5765 5764
5797 5796 5796 5795 5794 5792 5791 5790 5789 5788 5787 5786 5785 5784 5783 5782 5780 5780 5779 5777 5776 5775 5774 5772 5771 5770 5769 5768 5767 5766 5765 5765 5764 5763 5762 5760 5759 5758
5793 5792 5791 5790 5789 5787 5786 5785 5784 5783 5782 5781 5780 5779 5778 5777 5776 5775 5774 5773 5772 5770 5769 5767 5766 5765 5764 5763 5762 5761 5760 5758 5757 5756 5755 5753 5752 5751
5787 5786 5785 5784 5783 5782 5781 5780 5779 5778 5777 5776 5775 5774 5773 5772 5771 5770 5769 5768 5767 5765 5764 5763 5761 5760 5759 5757 5756 5755 5754 5753 5751 5750 5748 5747 5745 5744
5781 5780 5779 5778 5777 5776 5775 5774 5773 5772 5772 5771 5770 5769 5768 5767 5766 5765 5763 5763 5761 5760 5759 5757 5756 5755 5753 5752 5751 5749 5748 5747 5745 5744 5742 5740 5739 5738
5776 5774 5773 5772 5770 5769 5768 5767 5767 5766 5766 5765 5765 5763 5763 5762 5761 5759 5758 5757 5755 5754 5753 5752 5751 5749 5748 5746 5745 5744 5742 5741 5739 5738 5736 5734 5733 5731
5769 5768 5766 5765 5763 5762 5761 5761 5760 5760 5760 5759 5759 5758 5757 5755 5754 5753 5752 5751 5749 5748 5747 5746 5745 5744 5742 5741 5739 5738 5736 5735 5733 5731 5730 5728 5726 5725
5762 5761 5759 5758 5756 5755 5754 5754 5754 5753 5753 5752 5752 5751 5750 5749 5748 5747 5746 5744 5743 5742 5741 5740 5739 5738 5736 5735 5733 5731 5730 5728 5727 5725 5723 5721 5720 5719
5755 5754 5752 5750 5749 5748 5747 5747 5747 5747 5746 5746 5745 5744 5743 5742 5741 5740 5739 5738 5736 5736 5734 5733 5732 5731 5730 5729 5727 5725 5723 5721 5719 5718 5716 5715 5713 5712
5748 5747 5745 5743 5742 5741 5740 5740 5740 5739 5739 5739 5738 5738 5737 5736 5734 5733 5732 5731 5730 5729 5728 5727 5726 5724 5723 5723 5721 5719 5717 5715 5713 5711 5709 5708 5706 5705
5741 5740 5738 5737 5735 5734 5733 5732 5732 5732 5732 5731 5731 5731 5730 5729 5728 5727 5725 5724 5723 5723 5722 5720 5719 5718 5717 5716 5715 5713 5710 5708 5706 5705 5703 5702 5700 5698
5734 5732 5731 5730 5729 5727 5726 5726 5725 5725 5724 5724 5724 5723 5723 5722 5721 5720 5719 5718 5717 5716 5715 5714 5713 5711 5710 5709 5708 5706 5704 5702 5700 5699 5697 5695 5693 5692
5726 5725 5724 5723 5722 5721 5720 5719 5718 5718 5717 5717 5717 5716 5715 5715 5714 5713 5712 5711 5711 5710 5709 5708 5706 5705 5704 5703 5701 5700 5698 5696 5694 5692 5690 5688 5687 5685
5719 5718 5717 5716 5715 5714 5713 5712 5711 5711 5710 5710 5709 5709 5708 5707 5707 5706 5705 5704 5704 5703 5703 5701 5700 5698 5697 5696 5694 5693 5691 5689 5687 5685 5683 5682 5680 5678
5712 5711 5709 5708 5708 5707 5706 5705 5704 5703 5703 5703 5702 5702 5701 5700 5699 5699 5698 5698 5697 5696 5695 5694 5693 5692 5691 5689 5687 5685 5684 5682 5680 5678 5676 5675 5673 5671
5704 5703 5702 5701 5700 5699 5698 5697 5696 5696 5695 5695 5695 5694 5693 5693 5692 5691 5691 5690 5689 5689 5688 5687 5685 5684 5683 5682 5680 5678 5676 5675 5673 5671 5669 5668 5666 5664
5696 5695 5694 5693 5692 5691 5690 5689 5688 5688 5687 5687 5687 5686 5685 5685 5684 5684 5683 5683 5682 5681 5680 5679 5677 5676 5675 5674 5672 5671 5668 5667 5665 5663 5662 5660 5658 5656
5688 5686 5685 5684 5684 5683 5682 5681 5680 5680 5680 5679 5679 5678 5678 5677 5676 5676 5675 5675 5674 5673 5672 5671 5669 5668 5667 5665 5664 5663 5661 5659 5657 5655 5653 5651 5650 5648
5680 5679 5677 5677 5676 5675 5674 5673 5673 5672 5672 5671 5671 5671 5670 5669 5668 5668 5667 5666 5665 5665 5664 5663 5661 5659 5658 5657 5656 5654 5653 5651 5649 5647 5645 5643 5641 5639
5671 5670 5670 5669 5668 5667 5666 5666 5665 5664 5664 5663 5663 5662 5662 5661 5660 5659 5658 5657 5657 5656 5655 5654 5652 5651 5649 5648 5647 5645 5644 5642 5640 5638 5636 5634 5632 5630